This is the latest recevied weather packets stored in our database for station/object N5PLO-10. If no packets are shown the sender has not sent any weather packets the latest 10 day(s).
| Time | Temp. | Humidity | Pressure | Rain* | Wind** | Luminosity | Snow |
|---|---|---|---|---|---|---|---|
| 1777740560 | 22.22° C | 54% | 1024.4 hPa | 0 mm | - | 707 W/m² | - |
| 1777740257 | 22.22° C | 54% | 1024.3 hPa | 0 mm | - | 700 W/m² | - |
| 1777739953 | 23.33° C | 54% | 1024.4 hPa | 0 mm | - | 692 W/m² | - |
| 1777739650 | 23.33° C | 57% | 1024.3 hPa | 0 mm | - | 682 W/m² | - |
| 1777739348 | 22.22° C | 60% | 1024.1 hPa | 0 mm | - | 673 W/m² | - |
| 1777739044 | 21.67° C | 59% | 1024 hPa | 0 mm | - | 664 W/m² | - |
| 1777738741 | 21.67° C | 61% | 1024.1 hPa | 0 mm | - | 658 W/m² | - |
| 1777738437 | 21.67° C | 59% | 1023.8 hPa | 0 mm | - | 645 W/m² | - |
| 1777738135 | 22.22° C | 61% | 1023.8 hPa | 0 mm | - | 631 W/m² | - |
| 1777737833 | 22.22° C | 61% | 1023.6 hPa | 0 mm | - | 623 W/m² | - |
| 1777737532 | 21.67° C | 62% | 1023.6 hPa | 0 mm | - | 613 W/m² | - |
| 1777737229 | 21.11° C | 64% | 1023.5 hPa | 0 mm | - | 599 W/m² | - |
| 1777736925 | 20.56° C | 66% | 1023.4 hPa | 1.78 mm | - | 588 W/m² | - |
| 1777736316 | 20.56° C | 68% | 1023.3 hPa | 0 mm | - | 564 W/m² | - |
| 1777736013 | 20.56° C | 70% | 1023.3 hPa | 0 mm | - | 550 W/m² | - |
| 1777735711 | 20° C | 69% | 1023.4 hPa | 0 mm | - | 538 W/m² | - |
| 1777735408 | 19.44° C | 76% | 1023.2 hPa | 0 mm | - | 525 W/m² | - |
| 1777735106 | 18.89° C | 75% | 1023.3 hPa | 0 mm | - | 511 W/m² | - |
| 1777734802 | 19.44° C | 74% | 1023 hPa | 0 mm | - | 497 W/m² | - |
| 1777734500 | 18.89° C | 76% | 1023.1 hPa | 0 mm | - | 482 W/m² | - |
| 1777734196 | 18.33° C | 77% | 1023.2 hPa | 0 mm | - | 467 W/m² | - |
| 1777733893 | 18.33° C | 78% | 1023.1 hPa | 0 mm | - | 454 W/m² | - |
| 1777733590 | 17.78° C | 80% | 1023.1 hPa | 0 mm | - | 441 W/m² | - |
| 1777733286 | 17.78° C | 84% | 1022.9 hPa | 0 mm | - | 425 W/m² | - |
| 1777732983 | 16.67° C | 85% | 1022.9 hPa | 0 mm | - | 410 W/m² | - |
* Rain latest hour (hover to see other rain measurements)
** Current wind speed in m/s (hover to see current wind gust speed)